Providence, RI

8:19 AM EDT on October 21, 2017 (GMT -0400)
Green State

Weather History for KPVD - May, 2013

Change the Weather History Date:

Sunday, May 5, 2013

  Actual Average Record
Temperature  
Mean Temperature 51 °F 55 °F  
Max Temperature 62 °F 65 °F 91 °F (1949)
Min Temperature 39 °F 45 °F 33 °F (1907)
Degree Days  
Heating Degree Days 14 10  
Month to date heating degree days 59 53  
Since 1 July heating degree days 5163 5403  
Cooling Degree Days 0 0  
Month to date cooling degree days 0 0  
Year to date cooling degree days 0 2  
Moisture  
Dew Point 40 °F    
Average Humidity 67    
Maximum Humidity 92    
Minimum Humidity 42    
Precipitation  
Precipitation 0.00 in 0.11 in 2.29 in (2017)
Month to date precipitation T 0.57  
Year to date precipitation 11.58 17.09  
Snow  
Snow 0.00 in 0.00 in T in (1917)
Month to date snowfall 0.0 0.0  
Since 1 July snowfall 46.3 33.8  
Snow Depth 0.00 in    
Sea Level Pressure  
Sea Level Pressure 30.29 in    
Wind  
Wind Speed 8 mph (East)    
Max Wind Speed 15 mph    
Max Gust Speed 20 mph    
Visibility 10 miles    
Events      
T = Trace of Precipitation, MM = Missing Value Source: NWS Daily Summary

Daily Weather History Graph

Daily Weather History Graph

Search for Another Location

Airport or City:

Trip Planner

Search our weather history database for the weather conditions in past years. The results will help you decide how hot, cold, wet, or windy it might be!

Date:

Astronomy

May. 05, 2013 Rise Set
Actual Time 5:36 AM EDT 7:48 PM EDT
Civil Twilight 5:06 AM EDT 8:19 PM EDT
Nautical Twilight 4:28 AM EDT 8:57 PM EDT
Astronomical Twilight 3:47 AM EDT 9:38 PM EDT
Moon 3:09 AM EDT (5/5) 3:41 PM EDT (5/5)
Length of Visible Light 15h 13m
Length of Day
14h 11m
Waning Crescent, 18% of the Moon is Illuminated
May 5
Waning Crescent
May 9
New
May 18
First Quarter
May 25
Full
May 31
Last Quarter

Hourly Weather History & Observations

Time (EDT) Temp. Windchill Dew Point Humidity Pressure Visibility Wind Dir Wind Speed Gust Speed Precip Events Conditions
12:51 AM 39.9 °F 35.1 °F 36.0 °F 86% 30.32 in 10.0 mi NNE 6.9 mph - N/A   Clear
1:51 AM 39.9 °F 35.1 °F 37.0 °F 89% 30.31 in 10.0 mi NNE 6.9 mph - N/A   Clear
2:51 AM 39.9 °F 36.7 °F 36.0 °F 86% 30.30 in 10.0 mi North 4.6 mph - N/A   Clear
3:51 AM 39.9 °F 35.1 °F 37.0 °F 89% 30.30 in 10.0 mi North 6.9 mph - N/A   Clear
4:51 AM 39.0 °F 34.0 °F 36.0 °F 89% 30.29 in 10.0 mi North 6.9 mph - N/A   Clear
5:51 AM 39.0 °F 34.8 °F 36.0 °F 89% 30.30 in 10.0 mi North 5.8 mph - N/A   Partly Cloudy
6:51 AM 42.1 °F 37.1 °F 37.9 °F 85% 30.31 in 10.0 mi North 8.1 mph - N/A   Partly Cloudy
7:51 AM 46.9 °F - 41.0 °F 80% 30.31 in 10.0 mi NE 12.7 mph - N/A   Clear
8:51 AM 50.0 °F - 41.0 °F 71% 30.31 in 10.0 mi NE 9.2 mph - N/A   Partly Cloudy
9:51 AM 53.1 °F - 39.0 °F 59% 30.31 in 10.0 mi NE 13.8 mph 17.3 mph N/A   Mostly Cloudy
9:58 AM 53.6 °F - 39.2 °F 58% 30.30 in 10.0 mi NNE 10.4 mph 17.3 mph N/A   Mostly Cloudy
10:18 AM 55.4 °F - 39.2 °F 54% 30.31 in 10.0 mi East 11.5 mph - N/A   Mostly Cloudy
10:51 AM 57.0 °F - 39.0 °F 51% 30.31 in 10.0 mi NE 8.1 mph - N/A   Mostly Cloudy
11:51 AM 57.9 °F - 39.0 °F 49% 30.29 in 10.0 mi Variable 4.6 mph 18.4 mph N/A   Partly Cloudy
12:51 PM 60.1 °F - 37.9 °F 44% 30.28 in 10.0 mi Variable 3.5 mph - N/A   Partly Cloudy
1:51 PM 61.0 °F - 39.0 °F 44% 30.27 in 10.0 mi NE 9.2 mph - N/A   Partly Cloudy
2:51 PM 61.0 °F - 41.0 °F 48% 30.26 in 10.0 mi South 8.1 mph - N/A   Scattered Clouds
3:51 PM 62.1 °F - 41.0 °F 46% 30.25 in 10.0 mi ESE 9.2 mph - N/A   Scattered Clouds
4:51 PM 61.0 °F - 39.9 °F 46% 30.24 in 10.0 mi SSE 8.1 mph - N/A   Scattered Clouds
5:51 PM 57.0 °F - 41.0 °F 55% 30.24 in 10.0 mi South 13.8 mph - N/A   Partly Cloudy
6:51 PM 54.0 °F - 42.1 °F 64% 30.25 in 10.0 mi South 10.4 mph - N/A   Partly Cloudy
7:51 PM 50.0 °F - 44.1 °F 80% 30.27 in 10.0 mi South 9.2 mph - N/A   Clear
8:51 PM 48.0 °F - 44.1 °F 86% 30.28 in 10.0 mi South 6.9 mph - N/A   Scattered Clouds
9:13 PM 48.2 °F - 44.6 °F 87% 30.28 in 10.0 mi South 4.6 mph - N/A   Mostly Cloudy
9:51 PM 48.0 °F - 43.0 °F 83% 30.29 in 10.0 mi SSE 5.8 mph - N/A   Scattered Clouds
10:42 PM 46.4 °F 45.2 °F 42.8 °F 87% 30.28 in 10.0 mi SE 3.5 mph - N/A   Mostly Cloudy
10:51 PM 46.0 °F 43.9 °F 43.0 °F 89% 30.28 in 8.0 mi SE 4.6 mph - N/A   Mostly Cloudy
10:58 PM 46.4 °F 44.3 °F 42.8 °F 87% 30.28 in 8.0 mi SE 4.6 mph - N/A   Overcast
11:08 PM 46.4 °F 43.5 °F 42.8 °F 87% 30.28 in 8.0 mi SE 5.8 mph - N/A   Overcast
11:18 PM 46.4 °F 44.3 °F 42.8 °F 87% 30.28 in 8.0 mi SE 4.6 mph - N/A   Overcast
11:51 PM 46.9 °F - 43.0 °F 86% 30.28 in 8.0 mi South 4.6 mph - N/A   Overcast